Home > Weather > Ibagué > Past weeks

Flag for Colombia Past Weather in Ibagué, Colombia — Yesterday and Last 2 Weeks

Now
70 °F

Passing clouds.


Feels Like: 70 °F
Forecast: 54 / 72 °F
Wind: 3 mph from Southeast

Location: Pereira / Matecana

Current Time: Jun 30, 2016 at 11:26:11 PM

Latest Report: Jun 30, 2016 at 11:00 PM


Visibility: N/A

Pressure: 30.06 "Hg (25.90 "Hg at 1281m altitude)

Humidity: 83%

Dew Point: 64 °F

Location of IbaguéLocation

Past Weather in Ibagué — Graph

°F

Ibagué Temperature Yesterday

Maximum temperature yesterday: 84 °F (at 4:00 PM)
Minimum temperature yesterday: 66 °F (at 5:00 AM)
Average temperature yesterday: 75 °F

High & Low Weather Summary for the Past Weeks

 TemperatureHumidityPressure
High86 °F (Jun 27, 4:00 PM)100% (Jun 21, 5:00 AM)30.16 "Hg (Jun 21, 5:00 AM)
Low55 °F (Jun 22, 9:00 AM)48% (Jun 28, 4:00 PM)29.91 "Hg (Jun 27, 4:00 PM)
Average73 °F76%30.05 "Hg
* Reported Jun 15 10:00 PM — Jun 30 10:00 PM, Ibagué, Weather by CustomWeather, © 2016

Note: Actual official high and low records may vary slightly from our data, if they occured in-between our weather recording intervals... More about our weather records

Advertising

Ibagué Weather History for the Previous 24 Hours

Scroll right to see more
 ConditionsComfort  
Time TempWeatherWind HumidityBarometerVisibility
10:00 PM
Thu, Jun 30
70 °FPassing clouds.6 mph83%30.05 "HgN/A
9:00 PM72 °FPassing clouds.6 mph78%30.04 "HgN/A
8:00 PM72 °FPassing clouds.2 mph83%30.02 "HgN/A
7:00 PM73 °FPassing clouds.5 mph78%30.00 "HgN/A
6:00 PM75 °FScattered clouds.2 mph74%29.96 "HgN/A
5:00 PM77 °FScattered clouds.5 mph74%29.94 "HgN/A
4:00 PM77 °FScattered clouds.2 mph79%29.94 "HgN/A
3:00 PM73 °FBroken clouds.7 mph89%29.95 "HgN/A
2:00 PM81 °FPartly sunny.6 mph66%29.98 "HgN/A
1:00 PM77 °FScattered clouds.5 mph69%30.01 "HgN/A
12:00 PM77 °FScattered clouds.7 mph69%30.02 "HgN/A
11:00 AM77 °FScattered clouds.2 mph69%30.03 "HgN/A
10:00 AM77 °FScattered clouds.5 mph65%30.06 "HgN/A
9:00 AM75 °FPassing clouds.3 mph69%30.04 "HgN/A
8:00 AM72 °FPassing clouds.2 mph73%30.04 "HgN/A
7:00 AM66 °FPassing clouds.7 mph88%30.03 "HgN/A
6:00 AM66 °FPassing clouds.5 mph88%30.01 "HgN/A
5:00 AM66 °FPassing clouds.9 mph88%30.00 "HgN/A
1:00 AM70 °FPassing clouds.5 mph73%30.03 "HgN/A
12:00 AM70 °FPassing clouds.9 mph73%30.04 "HgN/A
11:00 PM
Wed, Jun 29
70 °FPassing clouds.9 mph73%30.05 "HgN/A
Weather by CustomWeather, © 2016

See weather overviewHow to use our weather pages